Weather History for KHBG - August, 2012

Change the Weather History Date:

Tuesday, August 7, 2012

  Actual Average Record
Temperature  
Mean Temperature 84 °F 82 °F  
Max Temperature 95 °F 93 °F 100 °F (1956)
Min Temperature 73 °F 71 °F 59 °F (1950)
Degree Days  
Heating Degree Days 0 0  
Month to date heating degree days 0 0  
Since 1 June heating degree days 0 0  
Since 1 July heating degree days 0 0  
Cooling Degree Days 19 17  
Month to date cooling degree days 144 119  
Year to date cooling degree days 1867 1479  
Since 1 June cooling degree days 1186 1064  
Growing Degree Days 34 (Base 50)    
Moisture  
Dew Point 71 °F    
Average Humidity 68    
Maximum Humidity 93    
Minimum Humidity 43    
Precipitation  
Precipitation T in 0.15 in 4.22 in (1987)
Month to date precipitation 1.75 1.06  
Year to date precipitation 40.43 38.49  
Sea Level Pressure  
Sea Level Pressure 29.97 in    
Wind  
Wind Speed 2 mph (NE)    
Max Wind Speed 7 mph    
Max Gust Speed -    
Visibility 5 miles    
Events Fog , Rain    
T = Trace of Precipitation, MM = Missing Value Source: NWS Daily Summary

Daily Weather History Graph

Daily Weather History Graph

Search for Another Location

Airport or City:

Trip Planner

Search our weather history database for the weather conditions in past years. The results will help you decide how hot, cold, wet, or windy it might be!

Date:

Astronomy

Aug. 07, 2012 Rise Set
Actual Time 6:17 AM CDT 7:47 PM CDT
Civil Twilight 5:51 AM CDT 8:13 PM CDT
Nautical Twilight 5:20 AM CDT 8:44 PM CDT
Astronomical Twilight 4:48 AM CDT 9:16 PM CDT
Moon 10:56 PM CDT (8/7) 11:37 AM CDT (8/7)
Length of Visible Light 14h 21m
Length of Day
13h 29m
Waning Gibbous, 69% of the Moon is Illuminated
Aug 7
Waning Gibbous
Aug 9
Last Quarter
Aug 17
New
Aug 24
First Quarter
Aug 31
Full

Hourly Weather History & Observations

Time (CDT) Temp. Heat Index Dew Point Humidity Pressure Visibility Wind Dir Wind Speed Gust Speed Precip Events Conditions
12:50 AM 75.2 °F - 71.6 °F 89% 29.99 in 7.0 mi Calm Calm - N/A   Scattered Clouds
12:53 AM 75.0 °F - 72.0 °F 90% 29.98 in 7.0 mi Calm Calm - 0.00 in Rain Light Rain
1:24 AM 75.2 °F - 71.6 °F 89% 29.99 in 5.0 mi Calm Calm - 0.00 in   Scattered Clouds
1:53 AM 73.9 °F - 71.1 °F 91% 29.98 in 5.0 mi Calm Calm - 0.00 in   Partly Cloudy
2:05 AM 75.2 °F - 71.6 °F 89% 29.98 in 1.5 mi Calm Calm - N/A   Partly Cloudy
2:11 AM 75.2 °F - 71.6 °F 89% 29.98 in 0.8 mi Calm Calm - N/A   Mist
2:24 AM 73.4 °F - 71.6 °F 94% 29.97 in 0.2 mi Calm Calm - N/A Fog Fog
2:53 AM 73.0 °F - 71.1 °F 93% 29.96 in 0.5 mi Calm Calm - N/A Fog Fog
3:04 AM 73.4 °F - 71.6 °F 94% 29.96 in 0.2 mi SE 3.5 mph - N/A Fog Fog
3:21 AM 73.4 °F - 71.6 °F 94% 29.97 in 0.8 mi Calm Calm - N/A   Mist
3:53 AM 73.0 °F - 71.1 °F 93% 29.96 in 0.5 mi Calm Calm - N/A Fog Fog
4:30 AM 73.4 °F - 71.6 °F 94% 29.97 in 1.0 mi Calm Calm - N/A   Mist
4:37 AM 73.4 °F - 69.8 °F 88% 29.97 in 0.8 mi Calm Calm - N/A   Mist
4:44 AM 73.4 °F - 69.8 °F 88% 29.96 in 2.0 mi Calm Calm - N/A   Mostly Cloudy
4:51 AM 73.4 °F - 69.8 °F 88% 29.97 in 8.0 mi Calm Calm - N/A   Scattered Clouds
4:52 AM 73.0 °F - 70.0 °F 90% 29.96 in 7.0 mi Calm Calm - N/A   Scattered Clouds
4:55 AM 73.4 °F - 71.6 °F 94% 29.97 in 1.8 mi Calm Calm - N/A   Mostly Cloudy
5:04 AM 73.4 °F - 69.8 °F 88% 29.97 in 0.5 mi Calm Calm - N/A Fog Fog
5:13 AM 73.4 °F - 71.6 °F 94% 29.97 in 2.5 mi Calm Calm - N/A   Mostly Cloudy
5:31 AM 73.4 °F - 69.8 °F 88% 29.98 in 6.0 mi Calm Calm - N/A   Mostly Cloudy
5:42 AM 73.4 °F - 69.8 °F 88% 29.98 in 6.0 mi Calm Calm - N/A   Scattered Clouds
5:53 AM 73.0 °F - 70.0 °F 90% 29.97 in 5.0 mi Calm Calm - N/A   Mostly Cloudy
6:19 AM 73.4 °F - 69.8 °F 88% 29.99 in 6.0 mi Calm Calm - N/A   Scattered Clouds
6:40 AM 73.4 °F - 69.8 °F 88% 29.99 in 5.0 mi Calm Calm - N/A   Mostly Cloudy
6:53 AM 73.0 °F - 71.1 °F 93% 29.98 in 7.0 mi Calm Calm - N/A   Overcast
7:01 AM 73.4 °F - 71.6 °F 94% 30.00 in 0.8 mi Calm Calm - N/A   Overcast
7:10 AM 73.4 °F - 71.6 °F 94% 30.00 in 0.2 mi Calm Calm - N/A Fog Fog
7:35 AM 73.4 °F - 71.6 °F 94% 30.01 in 0.2 mi Calm Calm - N/A Fog Fog
7:53 AM 73.9 °F - 72.0 °F 93% 30.00 in 0.5 mi Calm Calm - N/A Fog Fog
8:03 AM 73.4 °F - 71.6 °F 94% 30.02 in 2.0 mi Calm Calm - N/A   Mist
8:13 AM 75.2 °F - 71.6 °F 89% 30.01 in 3.0 mi Calm Calm - N/A   Mostly Cloudy
8:31 AM 77.0 °F - 71.6 °F 83% 30.02 in 9.0 mi Calm Calm - N/A   Scattered Clouds
8:53 AM 79.0 °F - 72.0 °F 79% 30.01 in 10.0 mi Calm Calm - N/A   Clear
9:53 AM 84.0 °F 89.6 °F 72.0 °F 67% 30.01 in 10.0 mi NNE 3.5 mph - N/A   Clear
10:53 AM 87.1 °F 92.8 °F 71.1 °F 59% 30.01 in 10.0 mi North 4.6 mph - N/A   Partly Cloudy
11:53 AM 88.0 °F 92.9 °F 70.0 °F 55% 30.00 in 10.0 mi WNW 4.6 mph - N/A   Clear
12:53 PM 90.0 °F 95.4 °F 70.0 °F 52% 29.98 in 10.0 mi Calm Calm - N/A   Clear
1:53 PM 91.9 °F 98.4 °F 71.1 °F 50% 29.96 in 10.0 mi Variable 5.8 mph - N/A   Clear
2:53 PM 93.9 °F 100.3 °F 70.0 °F 46% 29.94 in 10.0 mi Calm Calm - N/A   Clear
3:53 PM 95.0 °F 100.7 °F 69.1 °F 43% 29.93 in 10.0 mi Variable 3.5 mph - N/A   Partly Cloudy
4:53 PM 93.0 °F 97.9 °F 69.1 °F 45% 29.92 in 10.0 mi NE 6.9 mph - N/A   Clear
5:53 PM 93.0 °F 97.9 °F 69.1 °F 45% 29.91 in 10.0 mi East 5.8 mph - N/A   Clear
6:53 PM 91.9 °F 96.9 °F 69.1 °F 47% 29.92 in 10.0 mi East 3.5 mph - N/A   Clear
7:53 PM 82.9 °F 90.2 °F 75.0 °F 77% 29.92 in 10.0 mi Calm Calm - N/A   Clear
8:53 PM 82.9 °F 91.8 °F 77.0 °F 82% 29.94 in 10.0 mi Calm Calm - N/A   Clear
9:53 PM 82.0 °F 88.6 °F 75.0 °F 79% 29.97 in 10.0 mi Calm Calm - N/A   Clear
10:53 PM 81.0 °F 86.7 °F 75.0 °F 82% 29.97 in 10.0 mi Calm Calm - N/A   Clear